FW7766 Weather Reports


time (UTC)temp
C
wind
direction
speed
KPH
gust
KPH
rain 1hr
cm
rain 24hr
cm
rain mn
cm
humidity
%
barometer
mb
20260508090546 6 35 1.6 4.8 0.00 0.28 0.00 82 1015.9
20260508085523 6 0 0.0 3.2 0.00 0.28 0.00 79 1015.8
20260508084519 6 23 0.0 3.2 0.00 0.28 0.00 79 1015.8
20260508083516 7 0.0 0.0 0.00 0.28 0.00 80 1015.7
20260508082613 7 0.0 0.0 0.00 0.28 0.00 83 1015.7
20260508081609 7 0.0 0.0 0.00 0.28 0.00 77 1015.6
20260508080606 7 0.0 0.0 0.00 0.28 0.00 82 1015.4
20260508075642 7 0.0 0.0 0.00 0.28 0.00 78 1015.5
20260508074618 7 0.0 0.0 0.00 0.28 0.00 78 1015.6
20260508073556 7 0.0 0.0 0.00 0.28 0.00 78 1015.4
20260508072552 7 0.0 0.0 0.00 0.28 0.00 77 1015.3
20260508071549 7 90 0.0 1.6 0.00 0.28 0.00 76 1015.3
20260508070545 7 45 1.6 3.2 0.00 0.28 0.00 76 1015.2
20260508065541 7 0.0 0.0 0.00 0.30 0.00 76 1015.1
20260508064538 7 0.0 0.0 0.00 0.38 0.00 76 1015.1
20260508063534 7 0.0 0.0 0.00 0.38 0.00 75 1015.1
20260508062531 7 90 1.6 1.6 0.00 0.38 0.00 75 1015.1
20260508061528 8 0.0 0.0 0.00 0.38 0.00 74 1015.1
20260508060525 8 0.0 0.0 0.00 0.38 0.00 73 1015.2
20260508055521 8 72 1.6 3.2 0.00 0.38 0.00 73 1015.2
20260508054517 8 45 0.0 3.2 0.00 0.38 0.00 73 1015.2
20260508053615 8 90 0.0 1.6 0.00 0.43 0.00 72 1015.1
20260508052611 8 90 0.0 1.6 0.00 0.43 0.00 71 1014.8
20260508051627 8 90 0.0 1.6 0.00 0.43 0.00 70 1015.0
20260508050605 9 0.0 0.0 0.00 0.43 0.00 71 1014.9
20260508045620 9 0.0 0.0 0.00 0.43 0.00 71 1014.9
20260508044557 9 0.0 0.0 0.00 0.46 0.00 71 1014.9
20260508043553 9 0.0 0.0 0.00 0.46 0.00 71 1014.7
20260508042550 10 0.0 0.0 0.00 0.46 0.00 70 1014.7
20260508041546 10 0.0 0.0 0.00 0.46 0.00 70 1014.5
20260508040544 9 0.0 0.0 0.00 0.46 0.00 69 1014.4
20260508035600 10 0.0 0.0 0.00 0.46 0.46 70 1014.5
20260508034556 10 0.0 0.0 0.00 0.46 0.46 70 1014.4
20260508033533 10 0.0 0.0 0.00 0.46 0.46 70 1014.4
20260508032529 10 0.0 0.0 0.00 0.46 0.46 69 1014.3
20260508031527 10 90 1.6 4.8 0.00 0.46 0.46 68 1014.3
20260508030523 11 0.0 0.0 0.00 0.48 0.46 69 1014.0
20260508025520 11 0.0 0.0 0.00 0.48 0.46 67 1014.0
20260508024517 11 270 1.6 3.2 0.00 0.48 0.46 68 1014.0
20260508023613 11 90 0.0 1.6 0.00 0.51 0.46 68 1014.0
20260508022611 11 0.0 0.0 0.00 0.51 0.46 69 1013.7
20260508021607 11 0.0 0.0 0.00 0.51 0.46 69 1013.4
20260508020603 11 0.0 0.0 0.00 0.51 0.46 69 1013.3
20260508015559 11 0.0 0.0 0.00 0.53 0.46 69 1013.2
20260508014615 12 0.0 0.0 0.00 0.53 0.46 69 1013.0
20260508013552 12 0.0 0.0 0.00 0.53 0.46 66 1012.8
20260508012549 12 0.0 0.0 0.00 0.53 0.46 66 1012.6
20260508011545 13 0.0 0.0 0.00 0.53 0.46 66 1012.5
20260508010542 13 0.0 0.0 0.00 0.53 0.46 67 1012.4
20260508005539 13 54 1.6 3.2 0.00 0.53 0.46 67 1012.4
20260508004555 13 0 1.6 3.2 0.00 0.56 0.46 68 1012.2
20260508003532 13 0 1.6 3.2 0.00 0.56 0.46 68 1012.2
20260508002529 13 0.0 0.0 0.00 0.56 0.46 67 1012.3
20260508001545 13 0.0 0.0 0.00 0.56 0.46 66 1012.4
20260508000522 13 0.0 0.0 0.00 0.56 0.46 66 1012.4
20260507235517 13 0.0 0.0 0.00 0.56 0.46 66 1012.2
20260507234633 14 0.0 0.0 0.00 0.56 0.46 66 1012.2
20260507233610 14 0.0 0.0 0.00 0.56 0.46 66 1011.9
20260507232612 14 0.0 0.0 0.00 0.56 0.46 65 1011.7
20260507231604 14 90 0.0 1.6 0.00 0.56 0.46 65 1011.6
20260507230600 14 90 1.6 3.2 0.00 0.56 0.46 65 1011.4
20260507225616 14 69 3.2 4.8 0.00 0.56 0.46 65 1011.2
20260507224553 14 65 3.2 4.8 0.00 0.56 0.46 65 1011.1
20260507223549 14 74 3.2 4.8 0.00 0.56 0.46 65 1011.1
20260507222546 15 71 3.2 4.8 0.00 0.56 0.46 65 1010.9
20260507221543 14 90 1.6 4.8 0.00 0.56 0.46 65 1011.0
20260507220559 15 90 1.6 3.2 0.00 0.56 0.46 65 1010.8
20260507215555 15 100 1.6 4.8 0.00 0.56 0.46 65 1010.7
20260507214532 15 81 4.8 6.4 0.00 0.56 0.46 62 1010.6
20260507213529 15 90 3.2 4.8 0.00 0.56 0.46 63 1010.6
20260507212546 15 90 3.2 6.4 0.00 0.56 0.46 65 1010.3
20260507211522 14 90 3.2 4.8 0.00 0.56 0.46 65 1010.4
20260507210519 15 83 3.2 8.0 0.00 0.56 0.46 65 1010.4
20260507205515 15 72 4.8 8.0 0.00 0.56 0.46 65 1010.1
20260507204612 14 90 4.8 8.0 0.00 0.56 0.46 65 1010.2
20260507203628 14 90 4.8 8.0 0.00 0.56 0.46 63 1010.2
20260507202605 15 90 4.8 8.0 0.00 0.56 0.46 65 1010.1
20260507201602 15 60 4.8 8.0 0.00 0.56 0.46 68 1010.2
20260507200618 14 90 4.8 6.4 0.00 0.56 0.46 70 1010.3
20260507195555 14 85 3.2 4.8 0.00 0.56 0.46 69 1010.7
20260507194611 14 54 4.8 8.0 0.00 0.56 0.46 69 1010.6
20260507193548 14 35 4.8 8.0 0.00 0.56 0.46 69 1010.7
20260507192544 14 51 6.4 8.0 0.00 0.56 0.46 68 1010.6
20260507191541 15 82 4.8 8.0 0.00 0.56 0.46 67 1010.1
20260507190538 15 62 4.8 11.3 0.00 0.56 0.46 65 1010.0
20260507185534 15 79 6.4 9.7 0.00 0.56 0.46 65 1010.3
20260507184531 15 45 6.4 8.0 0.00 0.56 0.46 65 1010.3
20260507183527 15 52 4.8 6.4 0.00 0.56 0.46 65 1010.3
20260507182523 16 85 6.4 9.7 0.00 0.56 0.46 66 1010.2
20260507181520 16 80 3.2 4.8 0.00 0.56 0.46 66 1010.2
20260507180536 16 45 4.8 8.0 0.00 0.56 0.46 66 1010.1
20260507175613 16 90 4.8 8.0 0.00 0.56 0.46 66 1010.1
20260507174610 16 75 4.8 8.0 0.00 0.56 0.46 66 1010.1
20260507173606 16 81 4.8 8.0 0.00 0.56 0.46 66 1010.2
20260507172603 17 80 3.2 6.4 0.00 0.56 0.46 70 1010.2
20260507171559 17 90 3.2 6.4 0.00 0.56 0.46 76 1010.1
20260507170556 17 90 3.2 4.8 0.00 0.56 0.46 88 1010.3
20260507165553 17 90 3.2 4.8 0.00 0.56 0.46 95 1010.3
20260507164629 16 90 3.2 4.8 0.00 0.56 0.46 96 1010.3
20260507163546 17 90 4.8 8.0 0.00 0.56 0.46 98 1010.1
20260507162542 16 90 3.2 8.0 0.00 0.56 0.46 98 1010.0
20260507161540 16 90 4.8 8.0 0.00 0.56 0.46 98 1010.0
20260507160535 17 90 4.8 6.4 0.00 0.56 0.46 96 1010.1
20260507155532 17 65 1.6 4.8 0.00 0.56 0.46 96 1010.1
20260507154529 18 0.0 0.0 0.00 0.56 0.46 96 1010.4
20260507153525 18 0.0 0.0 0.00 0.56 0.46 96 1010.3
20260507152522 17 0.0 0.0 0.00 0.56 0.46 96 1010.4
20260507151519 17 0.0 0.0 0.00 0.56 0.46 96 1010.8
20260507150515 17 0.0 0.0 0.00 0.56 0.46 96 1010.8
20260507145612 17 0.0 0.0 0.00 0.56 0.46 96 1010.6
20260507144609 17 0.0 0.0 0.00 0.56 0.46 96 1010.7
20260507143605 17 0.0 0.0 0.00 0.56 0.46 96 1010.3
20260507142602 17 0.0 0.0 0.00 0.56 0.46 96 1010.2
20260507141558 17 0.0 0.0 0.00 0.56 0.46 96 1010.3
20260507140555 17 0.0 0.0 0.00 0.56 0.46 96 1010.4
20260507135551 17 0.0 0.0 0.03 0.56 0.46 96 1010.0
20260507134548 17 0.0 0.0 0.05 0.56 0.46 96 1010.5
20260507133545 17 0.0 0.0 0.05 0.56 0.46 98 1010.4
20260507132541 17 0.0 0.0 0.10 0.56 0.46 98 1010.2
20260507131538 17 0.0 0.0 0.13 0.56 0.46 98 1010.4
20260507130534 16 0.0 0.0 0.18 0.56 0.46 98 1010.3
20260507125531 16 0.0 0.0 0.15 0.53 0.43 98 1010.7
20260507124547 16 0.0 0.0 0.15 0.51 0.38 98 1011.1
20260507123524 16 0.0 0.0 0.18 0.51 0.38 98 1011.5
20260507122521 16 0.0 0.0 0.18 0.48 0.36 98 1011.8
20260507121517 16 0.0 0.0 0.15 0.46 0.33 98 1011.3
20260507120614 16 0.0 0.0 0.10 0.38 0.28 98 1011.3
20260507115611 16 0.0 0.0 0.10 0.38 0.28 98 1011.1
20260507114607 16 0.0 0.0 0.05 0.36 0.23 98 1011.4
20260507113604 16 0.0 0.0 0.03 0.33 0.20 98 1011.3
20260507112601 16 0.0 0.0 0.00 0.30 0.18 98 1010.9
20260507111558 16 0.0 0.0 0.00 0.30 0.18 97 1010.9
20260507110553 16 0.0 0.0 0.00 0.30 0.18 97 1010.7
20260507105550 16 0.0 0.0 0.00 0.30 0.18 97 1010.5
20260507104546 16 0.0 0.0 0.00 0.30 0.18 97 1010.6
20260507103542 16 0.0 0.0 0.00 0.30 0.18 97 1010.7
20260507102539 16 0.0 0.0 0.00 0.30 0.18 97 1010.6
20260507101535 16 0.0 0.0 0.00 0.30 0.18 97 1010.4
20260507100532 16 0.0 0.0 0.00 0.30 0.18 97 1010.5
20260507095530 16 0.0 0.0 0.00 0.30 0.18 97 1010.7
20260507094525 16 0.0 0.0 0.00 0.30 0.18 97 1010.6
20260507093522 16 0.0 0.0 0.00 0.30 0.18 97 1010.7
20260507092519 16 0.0 0.0 0.00 0.30 0.18 97 1010.7
20260507091555 16 0.0 0.0 0.00 0.30 0.18 97 1010.3